Regional Weather Roundup
Issued by NWS Charleston, SC

Current Version | Previous Version | Graphics & Text | Print | Product List | Glossary On
Versions: 1 2 3 4 5 6 7 8 9 10 11 12 13 14 15 16 17 18 19 20 21 22 23 24 25 26 27 28 29 30 31 32 33 34 35 36 37 38 39 40 41 42 43 44 45 46 47 48 49 50
000 ASUS42 KCHS 290327 RWRCHS REGIONAL WEATHER ROUNDUP NATIONAL WEATHER SERVICE CHARLESTON SC 1100 PM EDT THU MAY 28 2015 NOTE: "FAIR" INDICATES FEW OR NO CLOUDS BELOW 12,000 FEET WITH NO SIGNIFICANT WEATHER AND/OR OBSTRUCTIONS TO VISIBILITY. NOT ALL STATIONS ARE QUALITY CONTROLLED BY THE NATIONAL WEATHER SERVICE. USE DATA WITH CAUTION...ESPECIALLY DEWPOINT OBSERVATIONS. SCZ027-030-031-034>040-042>050-290400- ...SOUTHEAST SOUTH CAROLINA... CITY SKY/WX TMP DP RH WIND PRES REMARKS N CHARLESTON PTCLDY 72 62 71 E3 30.22R WATERFRONT PAR N/A 75 65 70 SE7 30.18R MOUNT PLEASANT LGT RAIN 66 64 94 CALM 30.22S JOHNS ISLAND CLEAR 68 64 88 CALM 30.22S PINOPOLIS N/A 73 64 73 CALM 30.13S MONCKS CORNER FAIR 66 63 88 CALM 30.23R SUMMERVILLE FAIR 64 64 100 CALM 30.23S BEAUFORT MCAS CLEAR 72 65 78 SE3 30.20R BEAUFORT ARPT FAIR 70 64 83 CALM 30.20S HILTON HEAD IS CLEAR 73 66 78 NE3 30.21S WALTERBORO CLEAR 64 61 88 CALM 30.23R ALLENDALE FAIR 72 63 73 CALM 30.21R ...SOUTHERN MIDLANDS AND PEE DEE... CITY SKY/WX TMP DP RH WIND PRES REMARKS GEORGETOWN NOT AVBL KINGSTREE NOT AVBL ORANGEBURG CLEAR 71 62 73 S3 30.22R BARNWELL FAIR 72 70 94 CALM 30.22S AIKEN FAIR 72 63 73 SE6 30.25R MANNING FAIR 64 61 88 CALM 30.23R COLUMBIA PTCLDY 77 64 64 S5 30.20R SUMTER PTCLDY 74 62 67 SE5 30.20R FLORENCE CLEAR 71 63 75 S5 30.22R MYRTLE BEACH MOCLDY 73 63 68 E7 30.25R N MYRTLE BEACH PTCLDY 74 63 68 CALM 30.23R $$ GAZ063-065-086>088-099>101-113>116-118-119-134>141-150-290400- ...SOUTHEAST GEORGIA... CITY SKY/WX TMP DP RH WIND PRES REMARKS SAVANNAH ARPT CLEAR 70 61 73 CALM 30.20R HUNTER AAF CLEAR 69 64 83 CALM 30.18R FORT STEWART CLEAR 67 64 87 CALM 30.18R STATESBORO CLEAR 69 67 94 CALM 30.21R SYLVANIA CLEAR 72 66 83 CALM 30.22S CLAXTON FAIR 66 63 88 CALM 30.20S ...CSRA...CENTRAL AND FAR SOUTHEAST GEORGIA... CITY SKY/WX TMP DP RH WIND PRES REMARKS THOMSON PTCLDY 73 72 97 CALM 30.26R AUGUSTA-BUSH PTCLDY 73 68 84 SE6 30.19R AUGUSTA-DANIEL PTCLDY 79 66 64 SE5 30.21R SWAINSBORO FAIR 75 66 73 SE3 30.21R VIDALIA PTCLDY 72 63 73 SE3 30.20S EASTMAN FAIR 74 64 73 SE3 30.21S HAZLEHURST FAIR 73 62 67 SE3 30.18S ALMA CLEAR 70 60 70 SE5 30.19R WAYCROSS CLEAR 68 63 83 CALM 30.19R JESUP FAIR 68 64 88 CALM 30.20R BAXLEY FAIR 72 63 73 CALM 30.19R BRUNSWICK N/A 68 64 88 CALM 30.19S SAINT SIMONS NOT AVBL $$ SCZ027-028-034-036>038-045-046-048>050-GAZ119-141-290400- ...LAKE AND SUPPLEMENTAL COASTAL OBSERVATIONS... STATION/POSITION TIME TEMP WIND PRES WAVE SWELL AIR SEA DIR/SP/G HT/PER HT/PER/DIR (UTC) (F) (DEG/KT/KT) (MB) (FT/S) (FT/S/D) UPR LAKE MARION NOT AVBL WINYAH BAY 0245 73 70/ 2 1022.0R LAKE MURRAY 0200 80 130/ 3/ 7 1021.7R ACE BASIN NERRS NOT AVBL FORT PULASKI 0300 76 80 110/ 8/ 11 1023.0R SAPELO ISLAND 0300 71 80/ 3 1022.0S $$ ANZ835-935-AMZ111-154-330-350-352-354-370-450-454-472-290400- ...C-MAN AND BUOY OBSERVATIONS... STATION/POSITION TIME TEMP WIND PRES WAVE SWELL AIR SEA DIR/SP/G HT/PER HT/PER/DIR (UTC) (F) (DEG/KT/KT) (MB) (FT/S) (FT/S/D) BUOY 41004 0250 77 78 100/ 10/ 12 1022.6R 3/ 8 3/ 8 BUOY 41008 0250 77 78 80/ 8/ 10 1022.3R 3/ 8 2/110/ 8 FOLLY BEACH CMAN 0300 76 130/ 11/ 13 1023.3R CAPERS NEARSHORE 0208 76 130/ 10/ 14 1022.8R FRIPP NEARSHORE 0200 76 130/ 10/ 12 1021.9R STATION/POSITION TIME TEMP WIND PRES WAVE SWELL AIR SEA DIR/SP/G HT/PER HT/PER/DIR (UTC) (F) (DEG/KT/KT) (MB) (FT/S) (FT/S/D) 5E ST. MARYS GA 0221 80 N/A 3/ 8 FRYING PAN BUOY 0250 77 76 120/ 8/ 10 1024.1R 3/ 7 3/120/ 7 BUOY 41025 0250 75 77 130/ 10/ 12 1024.0R 4/ 8 3/100/ 8 CAPE LOOKOUT NC 0300 74 130/ 4/ 5 1024.0R BUOY 41002 0250 74 74 70/ 14/ 16 1022.5R 6/ 8 5/ 90/ 8 BUOY 41010 0220 77 81 70/ 12/ 16 1020.6R ST AUGUSTINE FL 0300 77 80 80/ 11/ 12 1022.1R $$

USA.gov is the U.S. government's official web portal to all federal, state and local government web resources and services.